OneWeb SL0244

operational
NORAD ID: 48776 Int'l Des: 2021-045 Owner: ONEWEBN Country: UK Constellation: oneweb
LEOCIRCULARPOLARONEWEB_TYPE

Über OneWeb SL0244

Beschreibung wird geladen...

Live-Position

3D-Globus wird geladen...

Nächste Überflüge

Höhenverlauf

Altitude vs Time

uPlot chart will show altitude changes over time

Zweizeiliger Elementsatz

1 48776U 21045K 25350.30866578 .00000218 00000-0 54406-3 0 9995
2 48776 87.9012 295.6570 0001944 75.2637 284.8709 13.15550496220925
Epoch: 16. Dez. 2025 • Age: 16 hours

Aktueller Status

Höhe 1206.5 km
Geschwindigkeit 7.25 km/s
Subsatellitenpunkt -10.75°S, 147.47°W
Startdatum 28. Mai 2021
Alter 4.5 years
Typ internet

Technische Details

Klassifizierung Payload
Masse 148.00 kg
Trockenmasse 140.00 kg
Gesamtmasse 148.00 kg
Länge 1.30 m
Durchmesser 1.00 m
Spannweite 5.00 m
Form Trapezoid+2 pan
Hersteller ONEWUS
Bus-Typ ARROW
Phasenstatus In Orbit
Besitzer/Staat ONEWEBN/UK

Große Konstellationen

Loading constellations...